Weather History for West Palm Beach, FL

Change the Weather History Date:

Sunday, March 17, 2013

  Actual Average Record
Temperature  
Mean Temperature 67 °F 70 °F  
Max Temperature 77 °F 79 °F 90 °F (2001)
Min Temperature 57 °F 62 °F 38 °F (1890)
Degree Days  
Heating Degree Days 0 1  
Month to date heating degree days 59 17  
Since 1 July heating degree days 142 222  
Cooling Degree Days 2 6  
Month to date cooling degree days 26 100  
Year to date cooling degree days 407 335  
Growing Degree Days 17 (Base 50)    
Moisture  
Dew Point 55 °F    
Average Humidity 65    
Maximum Humidity 80    
Minimum Humidity 50    
Precipitation  
Precipitation 0.00 in 0.16 in 2.21 in (2001)
Month to date precipitation T 2.46  
Year to date precipitation 3.19 8.41  
Snow  
Snow 0.00 in - - ()
Month to date snowfall 0.0  
Since 1 July snowfall 0.0  
Snow Depth -    
Sea Level Pressure  
Sea Level Pressure 30.09 in    
Wind  
Wind Speed 7 mph (SE)    
Max Wind Speed 22 mph    
Max Gust Speed 26 mph    
Visibility 10 miles    
Events      
T = Trace of Precipitation, MM = Missing Value Source: NWS Daily Summary

Daily Weather History Graph

Daily Weather History Graph

Search for Another Location

Airport:

Trip Planner

Search our weather history database for the weather conditions in past years. The results will help you decide how hot, cold, wet, or windy it might be!

Date:

Astronomy

Mar. 17, 2013 Rise Set
Actual Time 7:27 AM EDT 7:30 PM EDT
Civil Twilight 7:04 AM EDT 7:53 PM EDT
Nautical Twilight 6:37 AM EDT 8:20 PM EDT
Astronomical Twilight 6:10 AM EDT 8:47 PM EDT
Moon 11:08 AM EDT (3/17) 12:07 AM EDT (3/17)
Length of Visible Light 12h 49m
Length of Day
12h 02m
Waxing Crescent, 31% of the Moon is Illuminated
Mar 17
Waxing Crescent
Mar 19
First Quarter
Mar 27
Full
Apr 3
Last Quarter
Apr 10
New

Hourly Weather History & Observations

Time (EDT) Temp. Dew Point Humidity Pressure Visibility Wind Dir Wind Speed Gust Speed Precip Events Conditions
12:53 AM 62.1 °F 53.1 °F 72% 30.13 in 10.0 mi WSW 3.5 mph - N/A   Partly Cloudy
1:53 AM 57.9 °F 52.0 °F 81% 30.11 in 10.0 mi Calm Calm - N/A   Clear
2:53 AM 59.0 °F 53.1 °F 81% 30.10 in 10.0 mi Calm Calm - N/A   Clear
3:53 AM 59.0 °F 54.0 °F 83% 30.09 in 10.0 mi Calm Calm - N/A   Mostly Cloudy
4:53 AM 60.1 °F 55.0 °F 83% 30.09 in 10.0 mi Calm Calm - N/A   Mostly Cloudy
5:53 AM 61.0 °F 55.0 °F 81% 30.09 in 10.0 mi Calm Calm - N/A   Overcast
6:53 AM 61.0 °F 55.0 °F 81% 30.10 in 10.0 mi Calm Calm - N/A   Mostly Cloudy
7:53 AM 62.1 °F 55.0 °F 78% 30.10 in 10.0 mi Calm Calm - N/A   Mostly Cloudy
8:53 AM 64.0 °F 55.9 °F 75% 30.14 in 10.0 mi North 3.5 mph - N/A   Mostly Cloudy
9:53 AM 68.0 °F 55.9 °F 65% 30.16 in 10.0 mi Calm Calm - N/A   Mostly Cloudy
10:53 AM 73.0 °F 55.0 °F 53% 30.14 in 10.0 mi SE 11.5 mph 16.1 mph N/A   Mostly Cloudy
11:53 AM 75.0 °F 55.9 °F 51% 30.14 in 10.0 mi SE 15.0 mph - N/A   Mostly Cloudy
12:53 PM 73.9 °F 55.9 °F 53% 30.13 in 10.0 mi SE 13.8 mph - N/A   Mostly Cloudy
1:53 PM 75.0 °F 55.0 °F 50% 30.11 in 10.0 mi SSE 12.7 mph 21.9 mph N/A   Mostly Cloudy
2:53 PM 75.0 °F 55.0 °F 50% 30.08 in 10.0 mi SSE 13.8 mph 25.3 mph N/A   Mostly Cloudy
3:53 PM 75.0 °F 55.9 °F 51% 30.05 in 10.0 mi SE 16.1 mph - N/A   Mostly Cloudy
4:53 PM 73.0 °F 55.0 °F 53% 30.05 in 10.0 mi SE 13.8 mph 21.9 mph N/A   Mostly Cloudy
5:53 PM 73.0 °F 55.9 °F 55% 30.06 in 10.0 mi SE 13.8 mph - N/A   Overcast
6:53 PM 72.0 °F 54.0 °F 53% 30.05 in 10.0 mi SE 11.5 mph - N/A   Mostly Cloudy
7:53 PM 71.1 °F 57.0 °F 61% 30.05 in 10.0 mi SE 9.2 mph - N/A   Mostly Cloudy
8:53 PM 71.1 °F 57.0 °F 61% 30.05 in 10.0 mi SE 9.2 mph - N/A   Mostly Cloudy
9:53 PM 71.1 °F 57.9 °F 63% 30.07 in 10.0 mi SSE 10.4 mph - N/A   Mostly Cloudy
10:53 PM 70.0 °F 59.0 °F 68% 30.08 in 10.0 mi SE 9.2 mph - N/A   Scattered Clouds
11:53 PM 69.1 °F 59.0 °F 70% 30.08 in 10.0 mi SE 8.1 mph - N/A   Scattered Clouds